User: anonymous   Login
Location: Dentlein
(49.1477°N, 10.4231°E)
Time: 10:16:33
(UTC+00:00)
Language:

Cosmos 2221 Rocket - Orbit

View from above orbital plane
View from above orbital plane
View from above satellite
View from above satellite

Ground track
Ground track

The orbit data is extracted from the following two-line orbital elements,

1 22237U 92080B   24197.80286649  .00000563  00000-0  72220-4 0  9992
2 22237  82.5099 231.6219 0020039  31.8059 328.4359 14.79385805705416
Epoch (UTC): 15 July 2024 19:16:07
Eccentricity: 0.0020039
inclination: 82.5099°
perigee height: 617 km
apogee height: 645 km
right ascension of ascending node: 231.6219°
argument of perigee: 31.8059°
revolutions per day: 14.79385805
mean anomaly at epoch: 328.4359°
orbit number at epoch: 70541

The dashed part of the orbit path shows where the satellite is in the earth's shadow,  

DLR